Regional Weather Roundup
Issued by NWS

Home | Current Version | Previous Version | Text Only | Print | Product List | Glossary On
Versions: 1 2 3 4 5 6 7 8 9 10 11 12 13 14 15 16 17 18 19 20 21 22 23 24 25 26 27 28 29 30 31 32 33 34 35 36 37 38 39 40 41 42 43 44 45 46 47 48 49 50
000
ASUS46 KPQR 311510
RWROR

OREGON REGIONAL WEATHER ROUNDUP
NATIONAL WEATHER SERVICE PORTLAND OR
700 AM PST SAT JAN 31 2015

NOTE: "FAIR" INDICATES FEW OR NO CLOUDS BELOW 12,000 FEET WITH
NO SIGNIFICANT WEATHER AND/OR OBSTRUCTIONS TO VISIBILITY.

ORZ001>013-311600-
NORTHWEST OREGON


CITY           SKY/WX    TMP DP  RH WIND       PRES   REMARKS
ASTORIA        PTCLDY    37  36  96 E6        30.18S WCI  32
NEWPORT        CLEAR     41  37  87 E3        30.19R
PORTLAND       FOG       33  33 100 NW6       30.24S VSB 1/4 WCI  28
VANCOUVER WA   FOG       32  32 100 CALM      30.24S VSB 1/4
SCAPPOOSE      FOG       33  33 100 CALM      30.24R VSB 1/4
HILLSBORO      FOG       29  29 100 CALM      30.22R VSB 3/4
AURORA         CLEAR     31  30  96 CALM      30.23R
MCMINNVILLE    FOG       30  29  96 CALM      30.23S VSB 1/2
SALEM          PTCLDY    29  28  96 SW3       30.22R
CORVALLIS      CLOUDY    37  34  87 CALM      30.22R VSB 1/4
EUGENE         FOG       38  38 100 SW3       30.20F VSB 1/4
$$

ORZ021-028-311600-
SOUTHWEST OREGON


CITY           SKY/WX    TMP DP  RH WIND       PRES   REMARKS
NORTH BEND     CLEAR     41  41 100 S5        30.12F
BROOKINGS      CLEAR     48  38  68 CALM      30.05S
ROSEBURG       CLOUDY    45  40  82 CALM      30.19R
SEXTON SUMMIT  CLEAR     45  22  40 SE8       30.13S
MEDFORD        FOG       32  31  96 CALM      30.19S VSB 1/4
$$

ORZ014>016-041-311600-
COLUMBIA GORGE


CITY           SKY/WX    TMP DP  RH WIND       PRES   REMARKS
TROUTDALE      PTCLDY    33  31  92 W5        30.23R FOG     WCI  29
THE DALLES     CLOUDY    39  34  82 CALM      30.33R
$$

ORZ029>031-041-044-049-050-061>064-502-503-505>511-311600-
EASTERN OREGON


CITY           SKY/WX    TMP DP  RH WIND       PRES   REMARKS
REDMOND        PTCLDY    26  25  96 E3        30.20R
BEND           CLEAR     25  23  93 CALM      30.19F
PRINEVILLE     CLEAR     27  25  93 CALM      30.21R
KLAMATH FALLS  PTCLDY    20  16  84 CALM      30.19R
LAKEVIEW       CLEAR     27  18  69 CALM      30.17R
HERMISTON      CLOUDY    37  34  89 N7        30.33R WCI  32
PENDLETON      CLOUDY    33  30  88 E6        30.29R WCI  28
JOHN DAY       CLOUDY    29  28  96 CALM      30.21F FOG
MEACHAM        CLEAR     17  14  88 CALM      30.19R
LA GRANDE      CLEAR     21  14  73 CALM      30.19S
BAKER CITY     CLEAR     19  17  92 E3        30.16S
BURNS          FOG       27  25  92 CALM      30.19R VSB 1/2
ROME             N/A     21  17  84 SE9       30.14F WCI  11
ONTARIO        PTCLDY    22  20  92 NW3       30.20R FOG
$$


USA.gov is the U.S. government's official web portal to all federal, state and local government web resources and services.